Location: Unspecified
(0.0000°N, 0.0000°E)
Time: 08:25:04
(UTC+02:00)

Vanguard 1 - Visible Passes

Search period start: 02 September 2015 00:00
Search period end: 12 September 2015 00:00
Orbit: 649 x 3835 km, 34.2° (Epoch: 31 August)

Date Brightness Start Highest point End Pass type
(mag) Time Alt. Az. Time Alt. Az. Time Alt. Az.
02 Sep 13.5 02:51:58 20° ENE 02:51:58 20° ENE 03:00:04 10° E visible
02 Sep 12.4 05:04:48 47° NNW 05:11:19 72° NE 05:34:43 10° ESE visible
02 Sep 13.1 07:19:46 10° WNW 07:39:02 53° SSW 08:01:17 10° SE visible
03 Sep 13.2 03:13:05 29° ENE 03:13:05 29° ENE 03:24:43 10° E visible
03 Sep 12.4 05:25:54 48° NW 05:33:02 88° NE 05:56:51 10° SE visible
04 Sep 13.0 03:34:04 39° ENE 03:34:04 39° ENE 03:48:30 10° ESE visible
04 Sep 12.4 05:46:53 44° WNW 05:54:54 76° SW 06:18:41 10° SE visible
05 Sep 12.7 03:54:57 51° ENE 03:54:57 51° ENE 04:11:38 10° ESE visible
05 Sep 12.5 06:07:45 36° W 06:17:01 62° SSW 06:40:17 10° SE visible
06 Sep 12.4 04:15:44 64° E 04:15:44 64° E 04:34:13 10° ESE visible
06 Sep 12.7 06:28:31 28° W 06:39:24 51° SSW 07:01:47 10° SE visible
07 Sep 13.9 02:23:35 11° E 02:23:35 11° E 02:24:13 10° E visible
07 Sep 12.2 04:36:23 75° SE 04:36:23 75° SE 04:56:24 10° SE visible
07 Sep 12.9 06:49:10 20° W 07:02:04 41° SSW 07:23:13 10° SE visible
08 Sep 13.7 02:44:09 17° E 02:44:09 17° E 02:47:57 10° ESE visible
08 Sep 12.2 04:56:55 72° SSW 04:56:55 72° SSW 05:18:17 10° SE visible
08 Sep 13.2 07:09:41 13° W 07:25:03 34° SSW 07:44:43 10° SSE visible
09 Sep 13.5 03:04:35 24° ESE 03:04:35 24° ESE 03:11:00 10° ESE visible
09 Sep 12.3 05:17:21 58° SW 05:18:01 58° SSW 05:39:57 10° SE visible
09 Sep 13.4 07:31:51 10° WSW 07:48:21 28° SSW 08:06:23 10° SSE visible
10 Sep 13.2 03:24:56 30° ESE 03:24:56 30° ESE 03:33:33 10° ESE visible
10 Sep 12.5 05:37:41 45° SW 05:40:23 47° SSW 06:01:31 10° SE visible
11 Sep 13.0 03:45:10 36° SE 03:45:10 36° SE 03:55:42 10° SE visible
11 Sep 12.7 05:57:55 34° SW 06:03:03 38° SSW 06:23:03 10° SE visible
